Location: Baumgarten
(49.0970°N, 12.7493°E)
Time: 19:13:05
(UTC+00:00)

Cosmos 2221 - Pass Details

Date: 05 July 2020
Orbit: 592 x 617 km, 82.5° (Epoch: 11 August)

Event Time Altitude Azimuth Distance (km) Brightness Sun altitude
Rises 20:52:56 0° 353° (N) 2,900 7.3 -11.7°
Reaches altitude 10° 20:55:13 10° 358° (N) 1,987 6.1 -11.9°
Maximum altitude 20:59:32 54° 76° (ENE) 747 2.8 -12.2°
Enters shadow 21:02:30 19° 149° (SSE) 1,462 3.8 -12.5°
